Find Starlink 37762

NORAD ID: 100415 Int'l Des: 2026-192 Owner: SPXS Country: US Constellation: starlink operational

Aktuelle Ansicht

3D-Globus wird geladen...

About Starlink 37762

Starlink 37762 (NORAD 100415) is a starlink constellation satellite launched Aug 21, 2026 by SPXS of US. with a mass of 575.00 kg.

Nächste Überflüge

Passes for default location (London). Set your location on the main map for personalized predictions.

Höhenverlauf

Loading altitude history...

Zweizeiliger Elementsatz

1 A0415U 26192M 26262.93379410 .00047060 00000-0 84829-3 0 9995
2 A0415 53.1591 308.6093 0001238 86.9951 273.1199 15.49336056 5826
Epoch: 19. Sept. 2026 • Age: 17 hours

Aktueller Status

Höhe 424.0 km
Apogäum / Perigäum N/A
Geschwindigkeit 7.66 km/s
Subsatellitenpunkt 52.31°N, 143.42°E
Startdatum 21. Aug. 2026
Alter 30 days
Typ internet

Technische Details

Klassifizierung Payload
Masse 575.00 kg
Trockenmasse 530.00 kg
Länge 0.30 m
Spannweite 29.00 m
Form ? Box + pan
Hersteller SPXS
Bus-Typ Starlink V2MO
Phasenstatus In Orbit
Besitzer/Staat SPXS/US

Most Searched